Location: Nitra
(0.0000°N, 18.0833°E)
Time: 06:05:53
(UTC+01:00)

Cosmos 1125 Rocket - Pass Details

Date: 24 January 2021
Orbit: 756 x 781 km, 74.0° (Epoch: 04 March)

Event Time Altitude Azimuth Distance (km) Brightness Sun altitude
Rises 18:53:35 0° 191° (S) 3,209 7.2 -12.7°
Reaches altitude 10° 18:55:57 10° 190° (S) 2,282 6.4 -13.2°
Maximum altitude 19:01:08 84° 102° (ESE) 764 3.4 -14.5°
Drops below altitude 10° 19:06:18 10° 14° (NNE) 2,279 5.6 -15.7°
Enters shadow 19:07:10 - 14° (NNE) 2,616 5.9 -15.9°
